Weather History for KSRQ - October, 2011

Change the Weather History Date:

Friday, October 21, 2011

  Actual Average Record
Temperature  
Mean Temperature 64 °F 75 °F  
Max Temperature 74 °F 84 °F 91 °F (1973)
Min Temperature 54 °F 66 °F 46 °F (1964)
Degree Days  
Heating Degree Days 1 0  
Month to date heating degree days 1 0  
Since 1 July heating degree days 1 0  
Cooling Degree Days 0 10  
Month to date cooling degree days 234 265  
Year to date cooling degree days 3272 3054  
Growing Degree Days 14 (Base 50)    
Moisture  
Dew Point 50 °F    
Average Humidity 66    
Maximum Humidity 86    
Minimum Humidity 44    
Precipitation  
Precipitation 0.00 in 0.08 in 1.12 in (1970)
Month to date precipitation 1.41 2.34  
Year to date precipitation 38.98 47.77  
Sea Level Pressure  
Sea Level Pressure 30.09 in    
Wind  
Wind Speed 7 mph (NE)    
Max Wind Speed 16 mph    
Max Gust Speed 33 mph    
Visibility 10 miles    
Events      
T = Trace of Precipitation, MM = Missing Value Source: NWS Daily Summary

Daily Weather History Graph

Daily Weather History Graph

Search for Another Location

Airport or City:

Trip Planner

Search our weather history database for the weather conditions in past years. The results will help you decide how hot, cold, wet, or windy it might be!

Date:

Astronomy

Oct. 21, 2011 Rise Set
Actual Time 7:33 AM EDT 6:55 PM EDT
Civil Twilight 7:09 AM EDT 7:19 PM EDT
Nautical Twilight 6:42 AM EDT 7:46 PM EDT
Astronomical Twilight 6:15 AM EDT 8:13 PM EDT
Moon 1:54 AM EDT (10/21) 3:11 PM EDT (10/21)
Length of Visible Light 12h 09m
Length of Day
11h 22m
Waning Crescent, 34% of the Moon is Illuminated
Oct 21
Waning Crescent
Oct 26
New
Nov 2
First Quarter
Nov 10
Full
Nov 18
Last Quarter

Hourly Weather History & Observations

Time (EDT) Temp. Dew Point Humidity Pressure Visibility Wind Dir Wind Speed Gust Speed Precip Events Conditions
12:53 AM 57.2 °F 51.8 °F 82% 30.08 in 10.0 mi ESE 4.6 mph - N/A   Clear
1:53 AM 57.0 °F 52.0 °F 83% 30.09 in 10.0 mi ESE 4.6 mph - N/A   Scattered Clouds
2:53 AM 55.9 °F 52.0 °F 87% 30.08 in 10.0 mi Calm Calm - N/A   Clear
3:53 AM 55.9 °F 52.0 °F 87% 30.08 in 10.0 mi Calm Calm - N/A   Partly Cloudy
4:53 AM 57.0 °F 52.0 °F 83% 30.08 in 10.0 mi East 3.5 mph - N/A   Mostly Cloudy
5:53 AM 55.9 °F 52.0 °F 87% 30.09 in 10.0 mi East 5.8 mph - N/A   Partly Cloudy
6:53 AM 55.0 °F 51.1 °F 86% 30.10 in 10.0 mi East 3.5 mph - N/A   Clear
7:53 AM 55.0 °F 52.0 °F 89% 30.11 in 10.0 mi ESE 3.5 mph - N/A   Scattered Clouds
8:53 AM 60.1 °F 54.0 °F 80% 30.12 in 10.0 mi ENE 11.5 mph - N/A   Partly Cloudy
9:53 AM 64.0 °F 52.0 °F 65% 30.14 in 10.0 mi ENE 12.7 mph - N/A   Clear
10:53 AM 68.0 °F 50.0 °F 52% 30.14 in 10.0 mi ENE 12.7 mph - N/A   Clear
11:53 AM 69.1 °F 50.0 °F 51% 30.14 in 10.0 mi ENE 12.7 mph 17.3 mph N/A   Clear
12:53 PM 71.1 °F 50.0 °F 47% 30.12 in 10.0 mi ENE 9.2 mph - N/A   Clear
1:53 PM 73.9 °F 51.1 °F 45% 30.09 in 10.0 mi NE 10.4 mph - N/A   Clear
2:53 PM 73.0 °F 50.0 °F 44% 30.06 in 10.0 mi North 10.4 mph - N/A   Clear
3:53 PM 73.9 °F 50.0 °F 43% 30.05 in 10.0 mi NNW 11.5 mph - N/A   Clear
4:53 PM 72.0 °F 48.9 °F 44% 30.05 in 10.0 mi NNW 9.2 mph - N/A   Clear
5:53 PM 69.1 °F 50.0 °F 51% 30.06 in 10.0 mi NNW 13.8 mph - N/A   Clear
6:53 PM 64.0 °F 50.0 °F 60% 30.06 in 10.0 mi NNW 8.1 mph - N/A   Clear
7:53 PM 62.1 °F 48.9 °F 62% 30.07 in 10.0 mi NNW 4.6 mph - N/A   Clear
8:53 PM 60.1 °F 46.0 °F 60% 30.08 in 10.0 mi North 5.8 mph - N/A   Clear
9:53 PM 60.1 °F 46.9 °F 62% 30.09 in 10.0 mi North 4.6 mph - N/A   Clear
10:53 PM 59.0 °F 48.0 °F 67% 30.09 in 10.0 mi NE 3.5 mph - N/A   Clear
11:53 PM 57.9 °F 48.9 °F 72% 30.07 in 10.0 mi NE 4.6 mph - N/A   Clear